Regional Weather Roundup
Issued by NWS Little Rock, AR

Home | Current Version | Previous Version | Graphics & Text | Print | Product List | Glossary On
Versions: 1 2 3 4 5 6 7 8 9 10 11 12 13 14 15 16 17 18 19 20 21 22 23 24 25 26 27 28 29 30 31 32 33 34 35 36 37 38 39 40 41 42 43 44 45 46 47 48 49
000
ASUS44 KLZK 280205
RWRLZK

WEATHER ROUNDUP FOR ARKANSAS
NATIONAL WEATHER SERVICE LITTLE ROCK AR
800 PM CST FRI FEB 27 2015

NOTE: "FAIR" INDICATES FEW OR NO CLOUDS BELOW 12,000 FEET WITH NO
SIGNIFICANT WEATHER AND/OR OBSTRUCTIONS TO VISIBILITY.

ARZ001-003-010-029-280300-
NORTHWEST ARKANSAS

CITY           SKY/WX    TMP DP  RH WIND       PRES   REMARKS
FAYETTEVILLE   LGT SNOW  19  16  88 NE5       30.48S FOG     WCI  12
FORT SMITH     LGT SNOW  23  18  81 E7        30.53S WCI  15
HARRISON       LGT SNOW  17  13  84 E6        30.50R FOG     WCI   9
BENTONVILLE    CLOUDY    18  12  79 E6        30.48F WCI   9
ROGERS         FLURRIES  17  13  84 E8          N/A  WCI   7
SILOAM SPGS    CLOUDY    18  10  73 E5        30.49F WCI  11
HIGHFILL       LGT SNOW  18  14  84 E7        30.48S FOG     WCI   9
SPRINGDALE     CLOUDY    18  14  86 NE7       30.49S FOG     WCI   8
$$

ARZ004-005-016-280300-
NORTH CENTRAL ARKANSAS

CITY           SKY/WX    TMP DP  RH WIND       PRES   REMARKS
BATESVILLE     CLOUDY    21  10  63 N7        30.58F WCI  13
FLIPPIN        CLEAR     19  12  73 E5        30.54R WCI  13
MTN HOME       LGT SNOW  18  15  88 E6        30.53S FOG     WCI  10
$$

ARZ040-041-280300-
WEST CENTRAL ARKANSAS

CITY           SKY/WX    TMP DP  RH WIND       PRES   REMARKS
MENA           CLOUDY    27  21  80 E7        30.46R WCI  19
MOUNT IDA      FLURRIES  25  17  72 VRB3      30.47R
$$

ARZ009-017-025-026-028-280300-
NORTHEAST ARKANSAS

CITY           SKY/WX    TMP DP  RH WIND       PRES   REMARKS
CORNING        CLOUDY    23  12  63 E10       30.63S WCI  12
JONESBORO      CLOUDY    22  14  71 NE12      30.60F WCI  10
NEWPORT        CLOUDY    24  17  74 NE14      30.60F WCI  12
WALNUT RIDGE   PTCLDY    21  12  68 NE14      30.62F WCI   8
BLYTHEVILLE    CLOUDY    25  15  66 NE16      30.61R WCI  12
$$

ARZ022-023-033-042-044-280300-
CENTRAL ARKANSAS

CITY           SKY/WX    TMP DP  RH WIND       PRES   REMARKS
LITTLE ROCK    CLOUDY    27   7  42 E10       30.55S WCI  17
N LITTLE ROCK  CLOUDY    25  11  54 NE10G20   30.55S WCI  15
JACKSONVILLE   MOCLDY    26   8  47 NE12      30.54S WCI  15
SEARCY         MOCLDY    25  15  66 NE13      30.58S WCI  14
HOT SPRINGS    CLOUDY    28   7  41 E12       30.50R WCI  18
RUSSELLVILLE   CLOUDY    24  17  74 NE8       30.53S WCI  15
CLINTON        CLOUDY    23  18  80 NE3       30.57R
$$

ARZ036-280300-
EAST ARKANSAS

CITY           SKY/WX    TMP DP  RH WIND       PRES   REMARKS
WEST MEMPHIS   CLOUDY    26  19  74 NE13      30.57R WCI  15
$$

ARZ050-053-066-070-073-280300-
SOUTHWEST ARKANSAS

CITY           SKY/WX    TMP DP  RH WIND       PRES   REMARKS
ARKADELPHIA    FAIR      29  10  44 NE10      30.53R WCI  20
CAMDEN         CLOUDY    28  16  59 MISG      30.52R
TEXARKANA      CLOUDY    30  16  56 E8        30.47R WCI  22
EL DORADO      CLOUDY    29  18  63 NE13      30.50R WCI  19
DE QUEEN       LGT SNOW  27  20  75 NE8       30.48R WCI  19
$$

ARZ056-057-069-280300-
SOUTHEAST ARKANSAS

CITY           SKY/WX    TMP DP  RH WIND       PRES   REMARKS
PINE BLUFF     CLOUDY    26  16  65 NE12      30.54S WCI  16
STUTTGART      CLOUDY    27  16  63 NE12      30.55S WCI  16
MONTICELLO     CLOUDY    29  18  63 NE14      30.51F WCI  18

$$




USA.gov is the U.S. government's official web portal to all federal, state and local government web resources and services.